Orbital Elements at Epoch 2459200.5 (2020-Dec-17.0) TDB
Reference: JPL 6 (heliocentric ecliptic J2000)
Element | Value | Uncertainty (1-sigma) | Units |
e | .2078067450045178 | 0.00015423 | |
a | 1.150770145981094 | 0.00014525 | au |
q | .9116323476963892 | 6.2422e-05 | au |
i | .5977089513605995 | 0.00044072 | deg |
node | 164.657807734059 | 0.032183 | deg |
peri | 146.5845442001101 | 0.032093 | deg |
M | 117.520713555439 | 0.017104 | deg |
tp | 2459053.304943113066 (2020-Jul-22.80494311) | 0.0064462 | TDB |
period | 450.9011124604752 1.23 | 0.085368 0.0002337 | d yr |
n | .7984012237972836 | 0.00015116 | deg/d |
Q | 1.389907944265799 | 0.00017543 | au |
|
| | Orbit Determination Parameters
Additional Information
|